Hourly Data Report for October 03, 2014

All times are specified in Local Standard Time (LST). Add 1 hour to adjust for Daylight Saving Time where and when it is observed.

ST LEONARD CS
NEW BRUNSWICK

47°09'28.050" N
67°49'55.014" W
245.00 m
810I001
71019
WIY

Download Data

Hourly Data (October 2014)
Hourly Data Report for October 3, 2014
Temp Definition
°C
Dew Point Temp Definition
°C
Rel Hum Definition
%
Wind Dir Definition
10's deg

Wind Spd Definition
km/h
Visibility Definition
km
Stn Press Definition
kPa
Hmdx Definition


Wind Chill Definition


Weather Definition


TIME
00:00 4.0 3.2 95 5 1   99.42     LegendNANA
01:00 2.9 2.4 97 6 2   99.42     LegendNANA
02:00 1.4 1.0 97   0   99.42     LegendNANA
03:00 2.2 1.9 98 7 2   99.42     LegendNANA
04:00 0.5 0.3 98 8 2   99.42     LegendNANA
05:00 2.6 2.4 99 10 1   99.37     LegendNANA
06:00 1.7 1.5 98 6 1   99.33     LegendNANA
07:00 1.1 1.0 99 1 3   99.38     LegendNANA
08:00 2.4 2.3 99 2 2   99.38     LegendNANA
09:00 4.8 4.2 96 36 3   99.37     LegendNANA
10:00 6.6 4.8 88 3 3   99.31     LegendNANA
11:00 10.2 6.0 76 4 2   99.28     LegendNANA
12:00 12.7 6.8 67 1 2   99.18     LegendNANA
13:00 14.8 5.6 54 9 2   99.06     LegendNANA
14:00 16.5 5.5 48 13 2   98.97     LegendNANA
15:00 17.3 6.5 49 10 2   98.88     LegendNANA
16:00 18.2 6.4 46 10 3   98.79     LegendNANA
17:00 17.9 6.6 48 10 2   98.73     LegendNANA
18:00 14.6 9.0 69 10 2   98.69     LegendNANA
19:00 13.0 7.0 67 10 4   98.68     LegendNANA
20:00 11.3 6.0 70 11 3   98.69     LegendNANA
21:00 10.1 5.4 73 12 3   98.68     LegendNANA
22:00 9.7 5.3 74 11 3   98.65     LegendNANA
23:00 8.8 5.2 78 11 3   98.63     LegendNANA

Notes on Data Quality.

Legend

  • E = Estimated
  • M = Missing
  • NA = Not Available
  • ‡ = Partner data that is not subject to review by the National Climate Archives
Date modified: